WESTFORD NEEDLES, 2362

Orbit data source: Space-Track

WESTFORD NEEDLES, 2362 is space debris originally from a launch on Thu, 09 May 1963 UTC launched from the Air Force Western Test Range (AFWTR). Debris objects in space refer to the collection of defunct objects orbiting the Earth. Examples of debris include non-operational satellites, rocket bodies, and fragments generated from explosions, collisions, or faulty payload assembly.

Loading next visibility...
Identifier
2362, 1963-014M
Orbit
Active
Country
Flag of USUS
Related business
Manufacturer
Unknown
Mission
Spacecraft
Bus & Motor
Unknown
Mass
Unknown
Launch date (UTC)
1963-05-09 (63 years ago)
Launch vehicle
Unknown
Launch site
Air Force Western Test Range (AFWTR)
Object type
Payload
Rocket body
Debris
Shape & HBR
Unknown shape, 0.3 m
Radar Cross Section
Medium (>0.1 m² and <1 m²)

Expand to show TLE details & history
Last TLE update: 10 hours ago

TLE from 10 hours ago
0 WESTFORD NEEDLES
1 02362U 63014M   25350.74727660  .00000688  00000-0  53597-2 0  9994
2 02362  85.2248 355.1105 2589865 246.7811  84.0994  8.85967277990603
Epoch: 2025-12-16T17:56Z
TLE epoch observation values (Epoch: 2025-12-16T17:56:04.698Z)
Latitude
-0°
Longitude
0.46387°
Altitude
3,879.032 km
Speed
6.11 km/s
True Right ascension
23h 40m 26s
True Declination
0° 00' 00"
Sunlit
Object was in daylight at epoch
Visualization orbit readout
Latitude
Unknown
Longitude
Unknown
Altitude
Unknown
Speed
Unknown
Apparent Right ascension
Unknown
Apparent Declination
Unknown
Sunlit
N/A
Visualization observer readout
Local Sidereal Time
02:41:43
Azimuth
Unknown
Elevation
Unknown
Doppler factor
Unknown
Orbital elements
Apogee altitude
6,039.471 km
Perigee altitude
930.611 km
Semi-major axis
9,863.178 km
Eccentricity
0.25899
Inclination
85.2248°
RAAN
355.1105°
Arg. of periapsis
246.7811°
True anomaly
113.31273°
Mean anomaly
84.0994°
Eccentric anomaly
98.76494°
Mean motion
2.21574 °/min
Orbital period
162.47 mins
BSTAR
0.0053597
Loading maneuver chart data...
Computing Atmospheric mass density...

Documentation

Showing up to 5 results
|